User: anonymous   Login
Location: Tuebingen alte Sternwarte
(48.5376°N, 9.0555°E)
Time: 10:48:55
(UTC+02:00)
Language:

OTV 5 (USA 277) - Orbit

View from above orbital plane
View from above orbital plane
View from above satellite
View from above satellite

Ground track
Ground track

The orbit data is extracted from the following two-line orbital elements,

1 42932U 17052A   18251.76450327 0.00001500  00000-0  19027-4 0    08
2 42932  54.5115 134.1136 0005000 149.1853 210.8146 15.58835668    05
Epoch (UTC): 08 September 2018 18:20:53
Eccentricity: 0.0005000
inclination: 54.5115°
perigee height: 387 km
apogee height: 394 km
right ascension of ascending node: 134.1136°
argument of perigee: 149.1853°
revolutions per day: 15.58835668
mean anomaly at epoch: 210.8146°
orbit number at epoch: 0

The dashed part of the orbit path shows where the satellite is in the earth's shadow,  

DLR